Weather History for Patuxent River, MD

Change the Weather History Date:

Monday, September 2, 2013

  Actual Average Record
Temperature  
Mean Temperature 80 °F -  
Max Temperature 87 °F 84 °F 98 °F (1980)
Min Temperature 73 °F 67 °F 58 °F (1987)
Cooling Degree Days 15    
Growing Degree Days 30 (Base 50)    
Moisture  
Dew Point 71 °F    
Average Humidity 77    
Maximum Humidity 91    
Minimum Humidity 55    
Precipitation  
Precipitation 0.00 in - - ()
Sea Level Pressure  
Sea Level Pressure 29.79 in    
Wind  
Wind Speed 4 mph (SW)    
Max Wind Speed 10 mph    
Max Gust Speed -    
Visibility 10 miles    
Events      
Averages and records for this station are not official NWS values.
T = Trace of Precipitation, MM = Missing Value Source: NWS Daily Summary

Daily Weather History Graph

Daily Weather History Graph

Search for Another Location

Airport:

Trip Planner

Search our weather history database for the weather conditions in past years. The results will help you decide how hot, cold, wet, or windy it might be!

Date:

Astronomy

Sep. 02, 2013 Rise Set
Actual Time 6:36 AM EDT 7:33 PM EDT
Civil Twilight 6:09 AM EDT 8:00 PM EDT
Nautical Twilight 5:37 AM EDT 8:32 PM EDT
Astronomical Twilight 5:03 AM EDT 9:05 PM EDT
Moon 3:52 AM EDT (9/2) 5:44 PM EDT (9/2)
Length of Visible Light 13h 51m
Length of Day
12h 57m
Waning Crescent, 8% of the Moon is Illuminated
Sep 2
Waning Crescent
Sep 5
New
Sep 12
First Quarter
Sep 19
Full
Sep 26
Last Quarter

Hourly Weather History & Observations

Time (EDT) Temp. Heat Index Dew Point Humidity Pressure Visibility Wind Dir Wind Speed Gust Speed Precip Events Conditions
12:52 AM 75.0 °F - 69.1 °F 82% 29.80 in 10.0 mi WSW 3.5 mph - N/A   Scattered Clouds
1:52 AM 75.0 °F - 69.1 °F 82% 29.80 in 10.0 mi Calm Calm - N/A   Clear
2:52 AM 75.0 °F - 70.0 °F 84% 29.79 in 10.0 mi Calm Calm - N/A   Clear
3:52 AM 73.9 °F - 70.0 °F 87% 29.78 in 10.0 mi South 4.6 mph - 0.00 in   Clear
4:52 AM 73.9 °F - 70.0 °F 87% 29.78 in 10.0 mi SW 4.6 mph - N/A   Mostly Cloudy
5:52 AM 73.9 °F - 70.0 °F 87% 29.78 in 10.0 mi Calm Calm - N/A   Overcast
6:52 AM 73.0 °F - 70.0 °F 90% 29.79 in 10.0 mi SW 5.8 mph - N/A   Partly Cloudy
7:15 AM 73.4 °F - 69.8 °F 88% 29.80 in 10.0 mi SW 5.8 mph - N/A   Mostly Cloudy
7:52 AM 73.9 °F - 71.1 °F 91% 29.81 in 10.0 mi Calm Calm - N/A   Overcast
8:52 AM 75.0 °F - 71.1 °F 87% 29.81 in 9.0 mi WSW 3.5 mph - N/A   Overcast
9:23 AM 75.2 °F - 71.6 °F 89% 29.81 in 9.0 mi SSW 3.5 mph - N/A   Overcast
9:52 AM 77.0 °F - 71.1 °F 82% 29.82 in 9.0 mi WSW 6.9 mph - N/A   Mostly Cloudy
10:01 AM 77.0 °F - 71.6 °F 83% 29.82 in 10.0 mi SW 6.9 mph - N/A   Scattered Clouds
10:08 AM 78.8 °F - 71.6 °F 78% 29.82 in 10.0 mi SW 6.9 mph - N/A   Mostly Cloudy
10:52 AM 78.1 °F - 72.0 °F 81% 29.82 in 10.0 mi SSW 5.8 mph - N/A   Overcast
11:52 AM 82.0 °F 86.7 °F 72.0 °F 71% 29.81 in 10.0 mi West 8.1 mph - N/A   Overcast
12:13 PM 80.6 °F 84.6 °F 71.6 °F 74% 29.81 in 10.0 mi WSW 10.4 mph - N/A   Scattered Clouds
12:38 PM 80.6 °F 84.6 °F 71.6 °F 74% 29.81 in 10.0 mi West 8.1 mph - N/A   Mostly Cloudy
12:52 PM 82.0 °F 86.7 °F 72.0 °F 71% 29.81 in 10.0 mi WSW 9.2 mph - N/A   Mostly Cloudy
1:12 PM 82.4 °F 87.2 °F 71.6 °F 70% 29.79 in 10.0 mi SW 5.8 mph - N/A   Scattered Clouds
1:35 PM 82.4 °F 87.2 °F 71.6 °F 70% 29.79 in 10.0 mi WSW 6.9 mph - N/A   Mostly Cloudy
1:42 PM 84.2 °F 89.6 °F 71.6 °F 66% 29.79 in 10.0 mi SW 5.8 mph - N/A   Scattered Clouds
1:52 PM 82.9 °F 87.5 °F 71.1 °F 67% 29.79 in 10.0 mi SW 5.8 mph - N/A   Mostly Cloudy
2:01 PM 84.2 °F 89.6 °F 71.6 °F 66% 29.79 in 10.0 mi WSW 8.1 mph - N/A   Scattered Clouds
2:52 PM 84.9 °F 90.1 °F 71.1 °F 63% 29.78 in 10.0 mi West 5.8 mph - N/A   Clear
3:52 PM 86.0 °F 92.2 °F 72.0 °F 63% 29.76 in 10.0 mi WSW 8.1 mph - N/A   Partly Cloudy
4:52 PM 87.1 °F 91.3 °F 69.1 °F 55% 29.75 in 10.0 mi West 6.9 mph - N/A   Clear
5:52 PM 84.9 °F 88.8 °F 69.1 °F 59% 29.75 in 10.0 mi WSW 10.4 mph - N/A   Clear
6:52 PM 82.0 °F 85.9 °F 70.0 °F 67% 29.75 in 10.0 mi Calm Calm - N/A   Clear
7:52 PM 79.0 °F - 73.0 °F 82% 29.76 in 10.0 mi South 3.5 mph - N/A   Clear
8:52 PM 78.1 °F - 73.0 °F 84% 29.76 in 10.0 mi South 3.5 mph - N/A   Clear
9:52 PM 78.1 °F - 73.0 °F 84% 29.77 in 10.0 mi SSW 4.6 mph - N/A   Clear
10:52 PM 77.0 °F - 72.0 °F 84% 29.78 in 10.0 mi Calm Calm - N/A   Clear
11:52 PM 77.0 °F - 71.1 °F 82% 29.78 in 10.0 mi Calm Calm - N/A   Clear